Weather History for KRRT - March, 2013

Change the Weather History Date:

Thursday, March 7, 2013

  Actual Average Record
Temperature  
Mean Temperature 12 °F -  
Max Temperature 28 °F 27 °F 51 °F (1987)
Min Temperature -5 °F 4 °F -27 °F (1967)
Degree Days  
Heating Degree Days 54    
Moisture  
Dew Point 6 °F    
Average Humidity 75    
Maximum Humidity 86    
Minimum Humidity 64    
Precipitation  
Precipitation 0.00 in - - ()
Sea Level Pressure  
Sea Level Pressure 30.28 in    
Wind  
Wind Speed 3 mph (East)    
Max Wind Speed 12 mph    
Max Gust Speed -    
Visibility 9 miles    
Events Rain    
Averages and records for this station are not official NWS values.
T = Trace of Precipitation, MM = Missing Value Source: NWS Daily Summary

Daily Weather History Graph

Daily Weather History Graph

Search for Another Location

Airport or City:

Trip Planner

Search our weather history database for the weather conditions in past years. The results will help you decide how hot, cold, wet, or windy it might be!

Date:

Astronomy

Mar. 07, 2013 Rise Set
Actual Time 6:50 AM CST 6:14 PM CST
Civil Twilight 6:19 AM CST 6:46 PM CST
Nautical Twilight 5:42 AM CST 7:22 PM CST
Astronomical Twilight 5:05 AM CST 8:00 PM CST
Moon 4:09 AM CST (3/7) 1:46 PM CST (3/7)
Length of Visible Light 12h 27m
Length of Day
11h 24m
Waning Crescent, 20% of the Moon is Illuminated
Mar 7
Waning Crescent
Mar 11
New
Mar 19
First Quarter
Mar 27
Full
Apr 2
Last Quarter

Hourly Weather History & Observations

Time (CST) Temp. Windchill Dew Point Humidity Pressure Visibility Wind Dir Wind Speed Gust Speed Precip Events Conditions
12:14 AM -0.4 °F - -5.8 °F 78% 30.32 in 7.0 mi Calm Calm - N/A   Overcast
12:34 AM -0.4 °F - -5.8 °F 78% 30.32 in 5.0 mi Calm Calm - N/A   Haze
12:54 AM -0.4 °F - -5.8 °F 78% 30.33 in 10.0 mi Calm Calm - N/A   Clear
1:14 AM -0.4 °F - -5.8 °F 78% 30.33 in 10.0 mi Calm Calm - N/A   Clear
1:34 AM -2.2 °F - -7.6 °F 78% 30.34 in 10.0 mi Calm Calm - N/A   Clear
1:54 AM -4.0 °F - -9.4 °F 78% 30.35 in 10.0 mi Calm Calm - N/A   Clear
2:14 AM -4.0 °F - -9.4 °F 78% 30.35 in 10.0 mi Calm Calm - N/A   Clear
2:34 AM -5.8 °F - -9.4 °F 84% 30.35 in 10.0 mi Calm Calm - N/A   Clear
2:54 AM -2.2 °F - -7.6 °F 78% 30.34 in 10.0 mi Calm Calm - N/A   Clear
3:14 AM -4.0 °F - -9.4 °F 78% 30.33 in 10.0 mi Calm Calm - N/A   Clear
3:34 AM -4.0 °F - -7.6 °F 85% 30.32 in 3.0 mi Calm Calm - N/A   Scattered Clouds
3:54 AM -5.8 °F - -9.4 °F 84% 30.32 in 10.0 mi Calm Calm - N/A   Mostly Cloudy
4:14 AM -2.2 °F - -7.6 °F 78% 30.33 in 4.0 mi Calm Calm - N/A   Overcast
4:34 AM -4.0 °F - -9.4 °F 78% 30.33 in 5.0 mi Calm Calm - N/A   Overcast
4:54 AM -4.0 °F - -9.4 °F 78% 30.33 in 10.0 mi Calm Calm - N/A   Overcast
5:14 AM -5.8 °F - -11.2 °F 77% 30.33 in 10.0 mi Calm Calm - N/A   Mostly Cloudy
5:33 AM -5.8 °F - -11.2 °F 77% 30.33 in 10.0 mi Calm Calm - N/A   Clear
5:54 AM -5.8 °F - -9.4 °F 84% 30.33 in 10.0 mi Calm Calm - N/A   Scattered Clouds
6:13 AM -5.8 °F - -11.2 °F 77% 30.33 in 10.0 mi Calm Calm - N/A   Scattered Clouds
6:34 AM -5.8 °F - -11.2 °F 77% 30.33 in 10.0 mi Calm Calm - N/A   Clear
6:54 AM -5.8 °F - -11.2 °F 77% 30.33 in 10.0 mi Calm Calm - N/A   Clear
7:14 AM -5.8 °F - -11.2 °F 77% 30.33 in 10.0 mi Calm Calm - N/A   Clear
7:34 AM -5.8 °F - -9.4 °F 84% 30.33 in 5.0 mi Calm Calm - N/A   Light Freezing Rain
7:54 AM -2.2 °F -10.4 °F -7.6 °F 78% 30.33 in 7.0 mi East 3.5 mph - N/A   Light Freezing Rain
8:14 AM -2.2 °F - -7.6 °F 78% 30.33 in 10.0 mi Calm Calm - N/A   Clear
8:34 AM -0.4 °F - -5.8 °F 78% 30.33 in 10.0 mi Calm Calm - N/A   Clear
8:54 AM 1.4 °F -6.2 °F -2.2 °F 85% 30.33 in 10.0 mi East 3.5 mph - N/A Rain Light Freezing Rain
9:14 AM 3.2 °F - -0.4 °F 85% 30.32 in 7.0 mi Calm Calm - N/A   Clear
9:34 AM 6.8 °F - 1.4 °F 79% 30.32 in 7.0 mi Calm Calm - N/A   Clear
9:54 AM 8.6 °F - 3.2 °F 79% 30.32 in 10.0 mi Calm Calm - N/A   Clear
10:14 AM 12.2 °F 4.3 °F 8.6 °F 85% 30.32 in 10.0 mi East 4.6 mph - N/A   Clear
10:34 AM 14.0 °F 6.5 °F 10.4 °F 86% 30.32 in 10.0 mi ENE 4.6 mph - N/A   Clear
10:54 AM 15.8 °F 8.6 °F 12.2 °F 86% 30.31 in 10.0 mi ENE 4.6 mph - N/A   Clear
11:14 AM 17.6 °F 9.3 °F 12.2 °F 79% 30.31 in 10.0 mi ENE 5.8 mph - N/A   Clear
11:34 AM 19.4 °F 10.4 °F 15.8 °F 86% 30.30 in 10.0 mi ENE 6.9 mph - N/A   Clear
11:54 AM 21.2 °F 16.4 °F 15.8 °F 80% 30.31 in 10.0 mi ENE 3.5 mph - N/A   Clear
12:14 PM 21.2 °F 13.6 °F 14.0 °F 74% 30.30 in 10.0 mi NE 5.8 mph - N/A   Clear
12:34 PM 23.0 °F 15.8 °F 15.8 °F 74% 30.29 in 10.0 mi NE 5.8 mph - N/A   Clear
12:54 PM 24.8 °F 16.9 °F 17.6 °F 74% 30.28 in 10.0 mi ENE 6.9 mph - N/A   Clear
1:14 PM 28.4 °F 20.4 °F 17.6 °F 64% 30.27 in 10.0 mi East 8.1 mph - N/A   Clear
1:34 PM 28.4 °F 19.7 °F 17.6 °F 64% 30.27 in 10.0 mi East 9.2 mph - N/A   Clear
1:54 PM 28.4 °F 19.7 °F 17.6 °F 64% 30.26 in 10.0 mi East 9.2 mph - N/A   Clear
2:14 PM 28.4 °F 19.1 °F 17.6 °F 64% 30.26 in 10.0 mi East 10.4 mph - N/A   Clear
2:34 PM 28.4 °F 19.7 °F 17.6 °F 64% 30.25 in 10.0 mi East 9.2 mph - N/A   Clear
2:54 PM 28.4 °F 19.1 °F 17.6 °F 64% 30.25 in 10.0 mi East 10.4 mph - N/A   Clear
3:14 PM 28.4 °F 19.7 °F 17.6 °F 64% 30.24 in 10.0 mi ENE 9.2 mph - N/A   Clear
3:34 PM 26.6 °F 17.5 °F 19.4 °F 74% 30.24 in 10.0 mi ENE 9.2 mph - N/A   Clear
3:54 PM 26.6 °F 17.5 °F 17.6 °F 69% 30.22 in 10.0 mi ENE 9.2 mph - N/A   Clear
4:14 PM 26.6 °F 19.1 °F 17.6 °F 69% 30.22 in 10.0 mi ENE 6.9 mph - N/A   Clear
4:34 PM 26.6 °F 17.5 °F 17.6 °F 69% 30.21 in 10.0 mi East 9.2 mph - N/A   Scattered Clouds
4:54 PM 26.6 °F 18.2 °F 17.6 °F 69% 30.22 in 10.0 mi East 8.1 mph - N/A   Clear
5:14 PM 26.6 °F 19.1 °F 17.6 °F 69% 30.22 in 10.0 mi East 6.9 mph - N/A   Clear
5:34 PM 24.8 °F 16.9 °F 17.6 °F 74% 30.22 in 10.0 mi East 6.9 mph - N/A   Scattered Clouds
5:54 PM 23.0 °F 14.7 °F 17.6 °F 80% 30.22 in 10.0 mi East 6.9 mph - N/A   Scattered Clouds
7:34 PM 24.8 °F 19.1 °F 19.4 °F 80% 30.21 in 10.0 mi ESE 4.6 mph - N/A   Overcast
7:54 PM 26.6 °F 20.0 °F 19.4 °F 74% 30.21 in 10.0 mi ESE 5.8 mph - N/A   Overcast
8:14 PM 26.6 °F 20.0 °F 19.4 °F 74% 30.20 in 10.0 mi SE 5.8 mph - N/A   Overcast
8:34 PM 28.4 °F 19.7 °F 17.6 °F 64% 30.20 in 10.0 mi SE 9.2 mph - N/A   Overcast
8:53 PM 28.4 °F 19.1 °F 17.6 °F 64% 30.20 in 10.0 mi SE 10.4 mph - N/A   Scattered Clouds
9:14 PM 28.4 °F 19.1 °F 17.6 °F 64% 30.19 in 10.0 mi SE 10.4 mph - N/A   Scattered Clouds
9:34 PM 26.6 °F 18.2 °F 17.6 °F 69% 30.20 in 10.0 mi SE 8.1 mph - N/A   Clear
9:54 PM 24.8 °F 16.1 °F 15.8 °F 69% 30.20 in 10.0 mi SSE 8.1 mph - N/A   Clear
10:14 PM 24.8 °F 16.1 °F 15.8 °F 69% 30.20 in 10.0 mi SSE 8.1 mph - N/A   Clear
10:34 PM 23.0 °F 13.9 °F 15.8 °F 74% 30.20 in 10.0 mi SSE 8.1 mph - N/A   Clear
10:54 PM 21.2 °F 10.9 °F 14.0 °F 74% 30.19 in 10.0 mi SSE 9.2 mph - N/A   Clear
11:14 PM 21.2 °F 10.9 °F 14.0 °F 74% 30.19 in 10.0 mi SSE 9.2 mph - N/A   Clear
11:34 PM 23.0 °F 12.4 °F 15.8 °F 74% 30.19 in 10.0 mi South 10.4 mph - N/A   Clear
11:54 PM 23.0 °F 11.7 °F 15.8 °F 74% 30.19 in 10.0 mi SSE 11.5 mph - N/A   Clear